EETN

Tallinn/Ulemiste

Airport
ICAO code
EETN
Summary
ICAO Region
EUR
ICAO Territory
Location

Tallinn,

Coordinates
59° 24' 59" N , 24° 47' 57" E
KCC
Metar
Observation
EETN 032120Z 36011KT 330V040 9999 SCT020 BKN026 09/04 Q1004 TEMPO 36015G25KT
Station
Tallinn
Date/Time
2022-10-03 21:20:00
Wind direction
360°
Wind speed
11 kts
Lowest cloud amount
scattered clouds
Temperature
9°C
Dew point
4°C
Humidity
70%
QNH
1004 hPa
Weather condition
n/a

Description

International airport serving capital city of Estonia.

Climatology

Humid Continental climate (Köppen climate classification Dfb) - Variable weather patterns and a large seasonal temperature variance. Summers are often warm and humid with frequent thunderstorms and winters can be very cold with frequent snowfall and persistent snow cover.

Runways

Designator Length Width Surface Rops
8/26 3070 45 ASP Yes/Yes

Airport map

Aerial View

SKYbrary Partners:

Safety knowledge contributed by: